Wind_Speed
9 8 8 8 8 8 8 7 7 6 5 5 5 5 4 3 3 3 3 3 3 3 2 2 2 2 3 3 3 3 3 2 3 3 3 4 4 4 6 7 5 5 6
9 8 8 8 8 8 7 7 6 5 5 4 4 4 4 3 3 3 3 3 3 3 3 3 3 3 2 2 2 2 2 2 2 3 3 4 4 5 6 6 6 6 6
8 8 7 8 8 8 7 7 6 5 5 4 4 4 4 3 3 3 3 2 2 2 3 3 3 3 2 2 3 3 2 3 2 3 4 4 5 6 6 6 6 7 7
8 8 8 8 7 7 6 6 6 5 5 4 4 4 4 3 3 3 2 2 2 3 3 4 4 4 4 4 3 3 3 3 3 3 4 4 5 5 6 6 5 5 6
9 9 10 9 7 6 6 6 6 5 5 5 4 4 4 4 4 4 3 3 3 3 4 4 5 5 5 4 4 4 4 3 3 3 4 4 5 5 6 5 4 4 5
9 9 10 9 8 6 6 6 6 6 6 5 5 5 5 5 5 5 5 4 4 4 4 4 5 6 5 5 4 4 5 5 4 5 5 4 4 5 6 6 5 5 6
9 10 10 9 9 8 7 7 7 6 6 6 6 5 5 6 6 6 6 6 6 5 5 5 6 6 6 6 5 5 5 5 5 6 6 5 4 4 5 5 5 5 6
9 10 10 9 9 9 8 8 7 7 6 7 7 6 6 6 7 7 7 7 6 6 6 6 6 7 6 6 6 5 5 6 5 6 6 5 5 5 5 5 5 5 5
10 10 10 9 9 8 8 8 8 8 7 7 7 7 7 7 7 7 7 7 7 7 7 7 7 7 7 7 6 6 6 6 6 6 5 6 6 5 5 5 5 5 6
10 9 10 9 9 9 9 10 9 8 8 8 8 8 8 8 7 7 6 6 6 7 6 7 7 7 7 7 7 7 6 6 6 6 6 6 7 6 6 6 6 5 5
8 9 10 10 10 10 10 10 10 9 9 9 8 8 8 8 7 7 6 6 7 7 7 7 8 8 8 7 7 8 7 7 6 6 7 6 7 7 6 7 7 6 6
8 9 10 11 11 11 10 10 10 9 9 9 10 9 8 8 8 8 7 7 7 7 8 8 8 9 9 8 8 8 9 8 7 7 7 7 7 7 7 7 7 7 8
8 10 10 11 11 11 11 11 10 9 9 9 9 9 8 9 9 9 8 8 7 7 8 8 9 9 9 9 9 9 9 10 9 7 7 8 8 7 8 8 8 9 9
9 10 10 11 11 11 11 11 10 10 10 10 9 9 9 9 9 9 8 8 8 8 8 9 9 10 10 10 10 10 10 10 10 9 8 8 8 8 8 9 9 9 10
9 9 10 11 11 11 11 11 10 10 9 9 9 9 10 10 10 9 8 8 8 9 9 10 10 11 11 11 11 11 10 11 11 11 11 10 9 9 9 9 10 9 10
9 9 10 11 12 11 11 11 10 9 9 9 10 10 10 10 10 9 9 9 9 9 10 10 11 11 11 11 11 12 11 12 11 11 11 11 11 10 10 10 11 11 11
10 10 11 11 11 11 11 11 10 10 10 10 10 11 11 10 10 10 10 10 10 10 10 11 11 12 12 12 12 12 12 12 12 12 12 12 12 12 11 11 11 12 12
10 11 11 11 11 11 11 11 10 10 11 11 11 11 11 10 10 11 11 11 11 11 11 12 12 12 12 12 13 13 14 14 13 13 13 12 12 12 12 13 12 13 13
11 11 11 11 12 11 11 11 11 11 12 12 12 12 12 12 12 12 12 12 12 13 13 13 13 13 13 13 14 14 15 15 15 14 14 13 13 13 14 14 14 15 15
11 11 11 12 12 12 12 12 12 12 13 13 12 12 13 13 12 12 13 13 13 13 13 13 14 14 14 14 15 15 15 15 15 15 14 14 15 15 15 15 15 15 16
12 12 13 13 12 13 13 12 12 13 13 13 13 14 14 14 13 13 13 14 13 13 13 13 14 14 15 15 15 15 16 16 16 16 16 16 16 16 16 16 16 17 17
12 12 13 13 12 12 13 13 13 14 13 13 13 14 14 14 14 14 14 14 14 13 13 13 14 14 15 15 16 16 16 16 16 17 17 17 17 17 17 17 17 18 18
13 13 12 12 12 13 14 15 15 15 15 14 14 14 14 14 14 14 14 14 13 13 14 14 15 15 15 15 15 16 16 16 16 17 18 18 18 18 19 19 19 19 20
14 13 13 12 13 14 15 15 16 16 16 15 15 15 15 15 14 14 14 15 14 15 15 16 17 16 16 16 16 17 18 18 18 18 19 19 20 20 19 19 20 21 21
15 14 14 13 14 15 15 15 15 16 16 15 15 15 15 15 15 15 15 16 16 16 16 16 16 17 17 17 17 18 17 18 18 18 19 20 21 21 21 21 21 21 22
16 16 15 15 15 16 16 15 16 16 15 15 15 15 15 15 15 16 16 17 17 17 18 17 17 17 18 18 17 18 18 18 19 19 20 21 21 22 22 22 22 22 22
Wind_Direction
10 14 15 15 16 20 22 26 28 33 35 30 25 22 17 12 12 5 350 337 327 308 277 265 258 260 253 259 277 270 273 263 230 236 226 222 226 233 228 221 217 211 206
2 6 9 9 11 14 17 18 22 27 31 26 21 16 10 7 357 347 341 331 322 307 279 261 255 260 245 264 279 276 262 243 254 242 235 228 235 239 227 216 213 216 214
360 2 3 4 6 10 16 19 20 22 24 20 16 9 2 357 354 348 342 330 320 307 276 258 255 255 265 285 282 284 273 237 252 249 233 230 239 235 228 220 217 221 218
360 359 0 1 2 1 2 6 11 11 11 10 8 3 356 348 348 349 339 334 313 298 276 262 254 259 267 275 275 276 269 255 243 251 241 242 245 238 233 226 221 222 217
355 354 358 356 355 351 348 352 356 354 355 354 350 344 340 333 328 327 314 307 296 287 278 270 267 263 264 269 268 273 267 259 251 251 255 264 259 258 245 228 229 226 217
348 351 355 358 356 351 349 348 346 341 337 337 333 328 323 319 313 311 308 298 289 283 280 275 274 263 260 260 263 273 275 269 267 263 262 267 268 265 250 243 250 238 221
344 348 352 357 356 351 348 346 340 336 332 326 323 319 313 308 306 303 296 291 282 277 271 273 270 260 257 256 256 263 270 275 265 257 256 259 266 270 265 263 248 240 227
336 341 348 351 352 347 341 338 333 330 328 327 323 318 311 304 302 300 292 288 279 274 269 263 259 259 258 260 260 265 270 275 273 254 255 256 259 262 266 265 250 242 240
329 334 341 345 344 339 336 334 326 321 318 318 318 317 312 307 302 299 291 285 279 276 266 258 259 255 259 257 256 258 266 266 264 257 259 263 263 254 257 264 254 245 236
326 329 333 335 333 331 329 328 324 320 317 313 310 307 305 303 299 300 298 284 279 271 259 254 253 255 254 257 256 257 262 263 259 258 263 264 262 253 249 251 246 244 239
325 328 329 329 327 325 323 323 320 318 316 313 309 305 305 303 297 293 296 284 274 262 258 256 249 253 251 251 253 252 254 259 261 263 264 260 254 249 242 243 241 243 244
326 328 327 326 323 321 319 318 315 312 311 311 310 308 306 303 296 290 289 285 274 266 259 255 252 253 254 249 248 251 254 255 254 257 261 256 251 252 246 243 243 246 250
324 326 325 322 321 318 314 315 313 308 306 307 308 305 304 302 296 292 285 278 270 264 260 256 256 256 255 255 254 252 252 251 252 254 254 250 248 253 252 250 250 251 251
323 325 323 320 317 316 311 308 310 306 303 302 302 297 296 295 293 290 284 274 268 263 260 258 257 256 255 254 253 252 252 254 253 252 252 254 252 254 257 253 254 251 250
317 321 323 320 317 312 310 305 305 303 299 297 298 293 291 290 289 285 281 273 273 266 259 256 255 254 252 252 253 253 253 255 257 255 256 256 255 255 254 252 254 254 253
310 315 320 319 318 312 308 304 299 295 293 296 289 292 292 289 286 283 277 273 270 266 264 261 254 253 253 252 251 252 253 256 259 255 256 257 254 257 255 252 255 256 254
305 309 313 315 315 310 307 303 297 292 290 290 290 289 288 286 284 278 273 271 270 266 263 262 259 256 255 253 252 252 253 253 254 255 254 256 258 259 255 255 258 257 256
298 305 308 309 310 307 306 303 295 293 287 284 285 288 289 287 285 280 275 274 275 269 264 262 260 258 257 255 254 254 254 253 252 252 254 256 257 257 257 258 261 259 258
290 297 301 303 304 305 303 301 296 292 286 283 281 283 286 286 283 282 280 277 276 271 265 262 260 257 256 256 257 255 257 255 252 252 252 254 257 257 257 259 259 256 256
282 286 291 295 299 300 298 299 296 292 287 284 281 279 278 280 281 282 280 277 274 271 267 266 262 256 256 258 258 257 255 255 254 253 253 255 258 258 260 260 258 257 258
283 281 287 293 295 298 299 294 290 289 288 285 283 281 277 277 278 280 281 282 277 271 264 261 260 259 260 260 259 256 254 253 253 253 253 255 257 259 260 259 257 260 260
284 283 287 290 293 296 299 295 289 288 288 286 283 278 275 277 277 278 279 280 277 274 268 264 263 262 266 264 262 257 254 255 253 253 254 255 256 258 259 259 260 261 261
279 282 286 287 291 296 299 298 291 287 286 285 282 279 279 279 278 278 277 275 273 272 270 269 267 267 268 268 264 261 258 258 259 256 258 259 259 259 259 260 260 261 263
274 278 282 284 286 291 295 295 292 288 285 283 281 281 280 278 278 276 275 274 272 272 272 270 268 267 266 266 263 261 261 260 260 259 260 261 262 262 263 264 262 262 263
274 277 280 283 283 288 290 292 291 290 286 284 282 281 281 279 278 278 277 277 275 274 274 273 269 267 267 266 264 262 261 261 261 262 263 263 263 262 263 265 263 263 263
273 277 279 282 283 286 289 289 289 290 288 286 281 280 280 281 280 278 279 278 277 276 276 276 274 270 269 268 266 265 266 263 262 262 263 263 262 260 262 264 264 265 266
Height
5875 5875 5874 5873 5872 5871 5871 5871 5870 5870 5870 5870 5870 5870 5870 5870 5870 5871 5871 5871 5871 5872 5872 5873 5873 5874 5874 5874 5874 5875 5875 5875 5875 5876 5876 5876 5877 5878 5878 5879 5880 5881 5882
5876 5875 5874 5873 5872 5871 5871 5870 5870 5870 5870 5870 5870 5870 5870 5870 5870 5870 5870 5871 5871 5871 5872 5872 5873 5874 5874 5874 5874 5874 5875 5876 5876 5876 5876 5876 5876 5877 5877 5878 5879 5880 5881
5875 5874 5874 5872 5872 5871 5870 5870 5870 5870 5870 5870 5870 5870 5870 5869 5870 5870 5870 5870 5871 5871 5871 5872 5873 5873 5873 5874 5874 5874 5875 5875 5876 5876 5876 5877 5876 5876 5877 5877 5878 5878 5879
5875 5874 5873 5872 5871 5870 5870 5870 5870 5870 5870 5870 5869 5869 5869 5869 5869 5870 5870 5870 5870 5871 5871 5872 5872 5873 5873 5874 5874 5874 5874 5875 5876 5876 5876 5876 5876 5876 5877 5877 5877 5877 5877
5875 5874 5873 5872 5870 5870 5869 5869 5869 5869 5869 5869 5869 5869 5869 5869 5869 5869 5869 5869 5870 5870 5870 5871 5871 5872 5872 5873 5873 5874 5874 5874 5875 5875 5875 5876 5876 5875 5875 5876 5876 5876 5877
5875 5873 5872 5871 5870 5869 5869 5869 5869 5869 5869 5868 5868 5868 5868 5868 5868 5868 5868 5869 5869 5869 5870 5870 5870 5871 5871 5872 5872 5873 5873 5873 5874 5874 5874 5875 5875 5875 5875 5875 5876 5876 5877
5874 5873 5872 5871 5870 5869 5868 5869 5868 5868 5868 5868 5867 5867 5867 5867 5867 5867 5867 5867 5868 5868 5869 5869 5869 5870 5870 5871 5871 5872 5872 5872 5873 5873 5874 5874 5874 5875 5875 5875 5876 5876 5877
5874 5872 5871 5870 5870 5869 5868 5868 5868 5867 5867 5867 5866 5866 5866 5866 5866 5866 5866 5866 5866 5867 5867 5867 5868 5868 5869 5870 5870 5871 5871 5871 5872 5872 5872 5873 5873 5874 5874 5875 5875 5876 5877
5872 5872 5870 5869 5869 5868 5867 5867 5867 5866 5866 5866 5865 5865 5865 5865 5864 5864 5864 5864 5864 5865 5865 5866 5866 5867 5868 5869 5869 5870 5870 5870 5870 5871 5871 5871 5872 5873 5874 5874 5874 5875 5877
5871 5870 5869 5868 5868 5867 5866 5866 5865 5865 5865 5864 5864 5864 5863 5863 5863 5863 5862 5862 5863 5863 5863 5864 5865 5865 5866 5867 5868 5868 5869 5869 5869 5870 5870 5871 5871 5872 5873 5874 5874 5875 5876
5870 5869 5868 5867 5867 5866 5865 5865 5864 5863 5863 5863 5863 5862 5862 5861 5861 5861 5861 5861 5861 5862 5862 5862 5863 5863 5864 5865 5866 5867 5867 5867 5868 5868 5869 5870 5870 5871 5872 5873 5873 5874 5875
5869 5868 5867 5866 5865 5864 5864 5863 5862 5862 5861 5861 5861 5860 5860 5860 5860 5860 5859 5859 5860 5860 5860 5861 5861 5862 5863 5863 5864 5865 5866 5866 5866 5867 5868 5868 5869 5870 5870 5871 5872 5873 5874
5868 5867 5866 5865 5864 5863 5862 5861 5860 5860 5860 5859 5859 5859 5858 5858 5858 5858 5857 5857 5858 5858 5858 5859 5859 5860 5861 5862 5862 5863 5864 5864 5865 5866 5866 5867 5867 5868 5869 5870 5870 5871 5872
5866 5865 5864 5863 5862 5861 5859 5859 5858 5858 5858 5857 5857 5857 5856 5856 5856 5856 5856 5855 5856 5856 5856 5857 5857 5858 5859 5860 5860 5861 5862 5862 5863 5864 5865 5865 5866 5866 5867 5867 5869 5870 5870
5864 5863 5862 5861 5860 5859 5857 5856 5856 5856 5855 5855 5855 5855 5855 5854 5854 5854 5854 5853 5854 5854 5854 5854 5855 5856 5857 5857 5858 5859 5860 5860 5861 5862 5862 5863 5864 5864 5865 5865 5866 5867 5868
5863 5862 5861 5859 5858 5857 5856 5855 5854 5854 5853 5853 5853 5853 5852 5852 5852 5852 5852 5851 5851 5851 5851 5852 5853 5853 5854 5855 5856 5856 5857 5858 5858 5859 5860 5860 5861 5862 5863 5863 5864 5865 5866
5860 5859 5858 5858 5856 5855 5854 5853 5852 5851 5851 5851 5851 5850 5850 5850 5850 5849 5849 5849 5849 5849 5849 5849 5850 5851 5851 5852 5853 5854 5854 5855 5856 5856 5857 5858 5859 5859 5860 5861 5861 5862 5863
5858 5857 5856 5856 5854 5853 5852 5851 5850 5849 5849 5848 5848 5848 5848 5847 5847 5847 5846 5846 5847 5847 5847 5847 5847 5848 5848 5849 5850 5850 5851 5852 5852 5853 5854 5855 5855 5856 5857 5858 5859 5859 5860
5855 5855 5854 5854 5852 5851 5850 5849 5848 5847 5847 5846 5846 5846 5845 5845 5844 5844 5844 5844 5844 5843 5844 5844 5844 5845 5845 5846 5846 5846 5847 5848 5849 5850 5851 5852 5852 5853 5854 5855 5856 5856 5857
5853 5852 5852 5851 5850 5849 5848 5846 5845 5845 5844 5844 5843 5843 5842 5842 5842 5841 5841 5841 5840 5840 5840 5841 5841 5841 5841 5842 5842 5843 5843 5844 5845 5846 5847 5848 5849 5850 5850 5851 5852 5852 5853
5850 5849 5849 5848 5847 5846 5845 5844 5843 5842 5841 5841 5840 5840 5839 5839 5838 5838 5838 5837 5837 5836 5837 5837 5837 5837 5837 5837 5838 5838 5839 5840 5841 5842 5843 5844 5845 5846 5846 5847 5848 5848 5849
5847 5846 5846 5845 5844 5843 5842 5841 5840 5839 5838 5838 5837 5836 5836 5835 5835 5834 5834 5833 5833 5833 5833 5833 5833 5833 5833 5833 5833 5834 5835 5836 5837 5838 5839 5840 5841 5841 5842 5843 5843 5844 5845
5843 5843 5843 5842 5842 5841 5839 5838 5837 5836 5835 5834 5833 5833 5832 5831 5831 5830 5830 5830 5829 5829 5829 5829 5829 5829 5829 5829 5829 5830 5831 5832 5833 5834 5834 5835 5836 5837 5837 5838 5838 5839 5840
5840 5840 5840 5839 5838 5837 5836 5835 5834 5833 5832 5830 5830 5829 5828 5827 5827 5826 5826 5826 5826 5825 5825 5825 5825 5825 5825 5825 5825 5825 5826 5827 5828 5829 5829 5830 5831 5832 5832 5833 5833 5834 5834
5837 5837 5836 5836 5835 5834 5833 5832 5830 5829 5828 5826 5825 5825 5824 5823 5823 5822 5822 5821 5821 5821 5820 5820 5820 5820 5820 5820 5820 5820 5821 5821 5822 5823 5824 5824 5825 5826 5827 5827 5828 5828 5829
5833 5832 5832 5832 5831 5830 5829 5828 5827 5825 5824 5822 5822 5821 5820 5819 5818 5817 5817 5816 5816 5815 5815 5814 5814 5814 5814 5814 5815 5815 5815 5816 5817 5817 5818 5818 5819 5820 5820 5821 5822 5822 5823